Find Starlink 35078

NORAD ID: 65523 Int'l Des: 2025-200 Owner: SPXS Country: US Constellation: starlink operational
LEOCIRCULARRETROGRADESSO

Live Position

Loading 3D Globe...

About Starlink 35078

Description loading...

Upcoming Passes

Passes for default location (London). Set your location on the main map for personalized predictions.

Altitude History

Loading altitude history...

Two-Line Element Set

1 65523U 25200D 26109.91991279 .00001536 00000-0 11057-3 0 9997
2 65523 97.5993 180.4219 0001183 149.3715 210.7581 15.05664089 35335
Epoch: Apr 19, 2026 • Age: 6 hours

Current Status

Altitude 576.0 km
Velocity 7.57 km/s
Sub-Earth Point -70.74°S, 70.4°E
Launch Date Sep 6, 2025
Age 0.6 years
Type internet

Technical Details

Classification Payload
Mass 575.00 kg
Dry Mass 530.00 kg
Total Mass 575.00 kg
Length 0.30 m
Diameter 4.10 m
Span 29.00 m
Shape Box + pan
Manufacturer SPXS
Bus Type Starlink V2MO
Phase Status In Orbit
Owner/State SPXS/US

Most Searched